Overview Statistics Trail Chart Weather Telemetry Raw packets
 

This is the latest recevied weather packets stored in our database for station/object SV9TNF-57. If no packets are shown the sender has not sent any weather packets the latest 10 day(s).

<< 9 10 11 12 13 14 15 >>
Time Temp. Humidity Pressure Rain* Wind** Luminosity Snow
1788594157 30.56° C 32% 997.1 hPa 0 mm 14.31 m/s, 286° - -
1788593857 30° C 33% 997.1 hPa 0 mm 7.15 m/s, 329° - -
1788593557 30° C 33% 997 hPa 0 mm 10.28 m/s, 335° - -
1788593257 30° C 33% 997.1 hPa 0 mm 4.47 m/s, 68° - -
1788592957 30.56° C 33% 996.9 hPa 0 mm 9.39 m/s, 341° - -
1788592656 30° C 32% 997 hPa 0 mm 6.71 m/s, 14° - -
1788592356 30° C 33% 997.1 hPa 0 mm 8.94 m/s, 356° - -
1788592056 30.56° C 32% 997 hPa 0 mm 8.05 m/s, 298° - -
1788591756 30° C 33% 997.1 hPa 0 mm 8.05 m/s, 320° - -
1788591456 30° C 33% 996.9 hPa 0 mm 7.6 m/s, 17° - -
1788591156 30° C 33% 996.9 hPa 0 mm 6.71 m/s, 23° - -
1788590856 30° C 32% 996.9 hPa 0 mm 6.71 m/s, 300° - -
1788590556 30° C 32% 997 hPa 0 mm 8.05 m/s, 271° - -
1788590256 30° C 32% 996.9 hPa 0 mm 8.05 m/s, 308° - -
1788589955 29.44° C 32% 996.7 hPa 0 mm 5.36 m/s, 274° - -
1788589656 29.44° C 33% 996.9 hPa 0 mm 8.49 m/s, 309° - -
1788589355 30° C 32% 996.7 hPa 0 mm 4.92 m/s, 333° - -
1788589055 29.44° C 33% 996.7 hPa 0 mm 1.79 m/s, 306° - -
1788588756 29.44° C 34% 996.7 hPa 0 mm 4.92 m/s, 328° - -
1788588455 29.44° C 34% 996.6 hPa 0 mm 4.02 m/s, 304° - -
1788588155 29.44° C 35% 996.7 hPa 0 mm 3.58 m/s, 5° - -
1788587855 28.89° C 35% 996.7 hPa 0 mm 1.34 m/s, 295° - -
1788587555 29.44° C 35% 996.6 hPa 0 mm 0.89 m/s, 308° - -
1788587255 28.89° C 34% 996.6 hPa 0 mm 0 m/s - -
1788586955 28.89° C 35% 996.5 hPa 0 mm 0 m/s - -

* Rain latest hour (hover to see other rain measurements)
** Current wind speed in m/s (hover to see current wind gust speed)